This is the latest recevied weather packets stored in our database for station/object W1ERB-13. If no packets are shown the sender has not sent any weather packets the latest 10 day(s).
| Time | Temp. | Humidity | Pressure | Rain* | Wind** | Luminosity | Snow |
|---|---|---|---|---|---|---|---|
| 1778267754 | 12.78° C | 53% | 1010.7 hPa | 0 mm | - | 316 W/m² | - |
| 1778267451 | 12.78° C | 56% | 1010.4 hPa | 0 mm | - | 618 W/m² | - |
| 1778267148 | 13.89° C | 53% | 1010.1 hPa | 0 mm | - | 154 W/m² | - |
| 1778266844 | 14.44° C | 48% | 1010 hPa | 0 mm | - | 74 W/m² | - |
| 1778266542 | 15° C | 49% | 1010 hPa | 0 mm | - | 192 W/m² | - |
| 1778266239 | 15.56° C | 47% | 1009.8 hPa | 0 mm | - | 219 W/m² | - |
| 1778265937 | 15° C | 49% | 1010 hPa | 0 mm | - | 543 W/m² | - |
| 1778265633 | 14.44° C | 52% | 1010.4 hPa | 0 mm | - | 757 W/m² | - |
| 1778265330 | 15.56° C | 51% | 1010.1 hPa | 0 mm | - | 131 W/m² | - |
| 1778265026 | 13.89° C | 52% | 1010.3 hPa | 0 mm | - | 761 W/m² | - |
| 1778264723 | 14.44° C | 52% | 1010 hPa | 0 mm | - | 736 W/m² | - |
| 1778264419 | 13.89° C | 57% | 1010.3 hPa | 0 mm | - | 721 W/m² | - |
| 1778264114 | 13.89° C | 57% | 1010.4 hPa | 0 mm | - | 252 W/m² | - |
| 1778263813 | 13.89° C | 56% | 1010.7 hPa | 0 mm | - | 443 W/m² | - |
| 1778263509 | 13.89° C | 55% | 1010.4 hPa | 0 mm | - | 356 W/m² | - |
| 1778263205 | 15° C | 55% | 1010.6 hPa | 0 mm | - | 734 W/m² | - |
| 1778262901 | 13.89° C | 55% | 1010.3 hPa | 0 mm | - | 751 W/m² | - |
| 1778262599 | 13.89° C | 53% | 1010.4 hPa | 0 mm | - | 805 W/m² | - |
| 1778262297 | 13.89° C | 49% | 1010.5 hPa | 0 mm | - | 219 W/m² | - |
| 1778261993 | 13.89° C | 48% | 1010.5 hPa | 0 mm | - | 177 W/m² | - |
| 1778261691 | 13.89° C | 46% | 1010.2 hPa | 0 mm | - | 201 W/m² | - |
| 1778261386 | 13.89° C | 45% | 1010.2 hPa | 0 mm | - | 129 W/m² | - |
| 1778261084 | 13.89° C | 44% | 1010.2 hPa | 0 mm | - | 184 W/m² | - |
| 1778260780 | 13.89° C | 45% | 1010.1 hPa | 0 mm | - | 249 W/m² | - |
| 1778260476 | 13.89° C | 43% | 1010.2 hPa | 0 mm | - | 155 W/m² | - |
* Rain latest hour (hover to see other rain measurements)
** Current wind speed in m/s (hover to see current wind gust speed)